Flag for Switzerland Weather past 2 weeks in Aarau, Aargau, Switzerland

Now
62 °F

Refreshingly cool.


Feels Like: 62 °F
Forecast: 39 / 70 °F
Wind: 7 mph from East

Location: Wynau

Current Time: May 27, 2015 at 4:47:06 PM

Latest Report: May 27, 2015 at 4:00 PM


Visibility: N/A

Pressure: 30.18 "Hg

Humidity: 43%

Dew point: 39 °F

Location of AarauLocation

Historic Weather in Aarau — Graph

°F

Aarau temperature yesterday

Maximum temperature yesterday: 58 °F (at 2:00 PM)
Minimum temperature yesterday: 50 °F (at 2:00 AM)
Average temperature yesterday: 53 °F

Past Weeks' High & Low Weather Summary

 TemperatureHumidityPressure
High81 °F (May 13, 4:00 PM)100% (May 22, 1:00 AM)30.34 "Hg (May 22, 1:00 AM)
Low42 °F (May 23, 6:00 AM)34% (May 13, 3:00 PM)29.72 "Hg (May 18, 6:00 PM)
Average56 °F75%30.06 "Hg
* Reported May 12 3:00 PM — May 27 3:00 PM, Aarau, Weather by CustomWeather, © 2015

Note: Actual official high and low records may vary slightly from our data, if they occured in-between our weather recording intervals... More about our weather records

Advertising

Aarau weather history for previous 24 hours

 ConditionsComfort  
Time TempWeatherWind HumidityBarometerVisibility
3:00 PM
Wed, May 27
61 °FRefreshingly cool.3 mph41%30.19 "HgN/A
2:00 PM59 °FRefreshingly cool.6 mph48%30.21 "HgN/A
1:00 PM56 °FRefreshingly cool.7 mph52%30.23 "HgN/A
12:00 PM56 °FRefreshingly cool.3 mph57%30.23 "HgN/A
11:00 AM58 °FRefreshingly cool.3 mph55%30.23 "HgN/A
10:00 AM55 °FCool.5 mph61%30.24 "HgN/A
9:00 AM52 °FCool.3 mph73%30.25 "HgN/A
8:00 AM47 °FCool.1 mph92%30.26 "HgN/A
7:00 AM44 °FQuite cool.No wind96%30.27 "HgN/A
6:00 AM43 °FQuite cool.No wind96%30.26 "HgN/A
4:00 AM46 °FCool.1 mph96%30.25 "HgN/A
3:00 AM47 °FCool.1 mph92%30.24 "HgN/A
2:00 AM48 °FCool.1 mph90%30.23 "HgN/A
1:00 AM48 °FCool.1 mph92%30.22 "HgN/A
12:00 AM50 °FCool.3 mph80%30.21 "HgN/A
11:00 PM
Tue, May 26
51 °FCool.3 mph78%30.19 "HgN/A
10:00 PM53 °FCool.6 mph68%30.17 "HgN/A
9:00 PM52 °FCool.2 mph84%30.15 "HgN/A
8:00 PM51 °FCool.1 mph90%30.14 "HgN/A
7:00 PM52 °FCool.2 mph88%30.13 "HgN/A
6:00 PM52 °FCool.6 mph85%30.11 "HgN/A
5:00 PM54 °FCool.3 mph75%30.09 "HgN/A
4:00 PM56 °FCool.2 mph72%30.08 "HgN/A
Weather by CustomWeather, © 2015

See weather overviewHow to use our weather pages